Location: Newark
(47.3150°N, 5.1150°E)
Time: 01:29:31
(UTC+00:00)

AO-7 - Pass Details

Date: 19 December 2019
Orbit: 1440 x 1458 km, 101.8° (Epoch: 23 January)

Event Time Altitude Azimuth Distance (km) Brightness Sun altitude
Rises 06:08:29 0° 15° (NNE) 4,563 ? -11.8°
Reaches altitude 10° 06:12:08 10° 0° (N) 3,585 ? -11.3°
Maximum altitude 06:17:40 20° 318° (NW) 2,870 ? -10.4°
Drops below altitude 10° 06:23:12 10° 276° (W) 3,583 ? -9.5°
Enters shadow 06:24:20 - 270° (W) 3,857 ? -9.4°
